CST,Max TemperatureF,Mean TemperatureF,Min TemperatureF,Max Dew PointF,MeanDew PointF,Min DewpointF,Max Humidity, Mean Humidity, Min Humidity, Max Sea Level PressureIn, Mean Sea Level PressureIn, Min Sea Level PressureIn, Max VisibilityMiles, Mean VisibilityMiles, Min VisibilityMiles, Max Wind SpeedMPH, Mean Wind SpeedMPH, Max Gust SpeedMPH,PrecipitationIn, CloudCover, Events, WindDirDegrees
2013-2-1,-31,-36,-40,,,,,,,29.76,29.61,29.47,5,2,0,24,15,24,0.00,,,307
2013-2-2,-32,-34,-36,,,,,,,29.51,29.46,29.42,4,1,0,30,21,28,0.00,,,312
2013-2-3,-31,-39,-47,,,,,,,29.66,29.56,29.47,9,8,1,15,9,,0.00,,,271
2013-2-4,-38,-42,-47,,,,,,,30.09,29.88,29.67,9,9,9,14,7,,0.00,,,121
2013-2-5,-40,-42,-45,,,,,,,30.16,30.12,30.04,9,9,3,13,9,,0.00,,,127
2013-2-6,-36,-42,-48,,,,,,,30.04,29.99,29.96,9,4,0,10,7,,0.00,,,186
2013-2-7,-29,-38,-47,,,,,,,30.01,29.90,29.84,9,6,1,9,6,,0.00,,Snow,144
2013-2-8,-31,-34,-36,,,,,,,29.93,29.89,29.86,9,4,2,13,8,,0.00,,,267
2013-2-9,-32,-40,-47,,,,,,,30.21,30.00,29.90,9,4,2,10,6,,0.00,,,243
2013-2-10,-14,-30,-47,,,,,,,30.25,30.02,29.79,9,4,1,21,11,,0.00,,,140
2013-2-11,-4,-9,-14,,,,,,,29.80,29.63,29.52,9,3,1,21,16,,0.00,,Snow,157
2013-2-12,-5,-20,-36,,,,,,,29.75,29.62,29.53,9,7,2,14,7,,0.00,,,288
2013-2-13,-36,-41,-46,,,,,,,30.13,29.98,29.77,9,3,0,14,9,,0.00,,,209
2013-2-14,-39,-44,-50,,,,,,,30.32,30.21,30.11,9,5,0,9,7,,0.00,,,187
2013-2-15,-43,-48,-53,,,,,,,30.34,30.32,30.26,9,9,4,12,8,,0.00,,,130
2013-2-16,-40,-47,-54,,,,,,,30.39,30.34,30.30,9,8,2,9,3,,0.00,,,255
2013-2-17,-49,-52,-56,,,,,,,30.52,30.44,30.37,9,8,3,10,6,,0.00,,,138
2013-2-18,-49,-52,-56,,,,,,,30.55,30.52,30.47,9,8,2,10,8,,0.00,,,124
2013-2-19,-38,-44,-51,,,,,,,30.56,30.51,30.48,9,4,0,13,5,,0.00,,,179
2013-2-20,-9,-30,-51,,,,,,,30.56,30.39,30.29,9,5,1,21,12,,0.00,,Snow,128
2013-2-21,-5,-8,-10,,,,,,,30.32,30.21,30.11,9,2,1,25,19,,0.00,,Snow,165
2013-2-22,-5,-10,-14,,,,,,,30.14,30.11,30.04,9,6,2,20,15,,0.00,,Snow,171
2013-2-23,3,-2,-6,,,,,,,30.04,29.91,29.86,9,3,1,16,12,,0.00,,Snow,138
2013-2-24,-2,-20,-38,,,,,,,30.08,29.94,29.87,9,6,1,16,7,,0.00,,Snow,72
2013-2-25,-30,-35,-40,,,,,,,30.27,30.17,30.08,9,7,0,14,5,,0.00,,,43
2013-2-26,-36,-45,-54,,,,,,,30.46,30.37,30.25,9,4,0,13,6,,0.00,,,220
2013-2-27,-36,-40,-45,,,,,,,30.63,30.52,30.42,4,1,0,15,9,,0.00,,,237
2013-2-28,-40,-42,-45,,,,,,,30.65,30.61,30.57,9,3,0,14,10,,0.00,,,204